This is the latest recevied weather packets stored in our database for station/object AA6HF. If no packets are shown the sender has not sent any weather packets the latest 10 day(s).
| Time | Temp. | Humidity | Pressure | Rain* | Wind** | Luminosity | Snow |
|---|---|---|---|---|---|---|---|
| 1788014917 | 32.22° C | 41% | 1007.4 hPa | 0 mm | - | - | - |
| 1788014617 | 31.11° C | 43% | 1007.3 hPa | 0 mm | - | - | - |
| 1788014317 | 30° C | 44% | 1007.3 hPa | 0 mm | - | - | - |
| 1788014017 | 30° C | 47% | 1007.3 hPa | 0 mm | - | - | - |
| 1788013717 | 29.44° C | 46% | 1007.3 hPa | 0 mm | - | - | - |
| 1788013417 | 29.44° C | 44% | 1007.3 hPa | 0 mm | - | - | - |
| 1788013117 | 29.44° C | 46% | 1007.3 hPa | 0 mm | - | - | - |
| 1788012817 | 28.89° C | 46% | 1007.2 hPa | 0 mm | - | - | - |
| 1788012517 | 28.33° C | 48% | 1007.3 hPa | 0 mm | - | - | - |
| 1788012217 | 27.78° C | 50% | 1007.3 hPa | 0 mm | - | - | - |
| 1788011922 | 27.78° C | 52% | 1007.3 hPa | 0 mm | - | - | - |
| 1788011617 | 27.22° C | 52% | 1007.2 hPa | 0 mm | - | - | - |
| 1788011317 | 27.78° C | 52% | 1007.1 hPa | 0 mm | - | - | - |
| 1788011017 | 27.78° C | 51% | 1007 hPa | 0 mm | - | - | - |
| 1788010717 | 27.78° C | 50% | 1007 hPa | 0 mm | - | - | - |
| 1788010417 | 27.78° C | 50% | 1007 hPa | 0 mm | - | - | - |
| 1788010117 | 27.78° C | 49% | 1007 hPa | 0 mm | - | - | - |
| 1788009817 | 27.78° C | 49% | 1006.9 hPa | 0 mm | - | - | - |
| 1788009517 | 27.78° C | 48% | 1006.9 hPa | 0 mm | - | - | - |
| 1788009217 | 28.33° C | 49% | 1007 hPa | 0 mm | - | - | - |
| 1788008917 | 27.78° C | 49% | 1007 hPa | 0 mm | - | - | - |
| 1788008617 | 27.78° C | 49% | 1007 hPa | 0 mm | - | - | - |
| 1788008317 | 27.78° C | 49% | 1006.7 hPa | 0 mm | - | - | - |
| 1788008017 | 27.78° C | 49% | 1006.7 hPa | 0 mm | - | - | - |
| 1788007717 | 27.78° C | 48% | 1006.7 hPa | 0 mm | - | - | - |
* Rain latest hour (hover to see other rain measurements)
** Current wind speed in m/s (hover to see current wind gust speed)